Погода в Савине

Россия / Смоленская область     55°06′22″N   32°19′47″E
темп.,
°C
ветер,
м/с
пор.,
м/с
влажн.,
%
обл.,
%
осадки,
мм/ч
давл.,
гПа
погр.,
м
7 мая, пт
пт700:00+3юз412903 0.1 1008379
03:00+2юз411921 0.1 1009278
06:00+1ююз399197 0.0 1010208
09:00+7ююз41079100 0.3 1010626
12:00+11юз68598 0.3 10091580
15:00+11юз5965100 1.4 10091461
18:00+10юз4873100 0.9 1008917
21:00+8ю61183100 1.2 1008854
8 мая, сб
сб800:00+7вюв3896100 4.9 1005515
03:00+8ююз5994100 5.5 1003578
06:00+6юз2698100 0.0 1003400
09:00+8з468694 0.1 1003803
12:00+9зсз6778100 0.3 10041087
15:00+7ссз4778100 0.6 10061028
18:00+8сз5970100 0.6 10071395
21:00+4сз5127655 0.7 1011664
9 мая, вс
вс900:00+2з39885 0.0 1013210
03:00+1зсз411935 0.0 1015416
06:00+1зсз311900 0.0 1019357
09:00+6зсз47615 0.0 1020939
12:00+10зсз46427 0.0 10221898
15:00+11зсз453910 0.0 10232071
18:00+11з33445 0.0 10241654
21:00+6ююз226929 0.0 102635
10 мая, пн
пн1000:00+4ююз367165 0.0 102789
03:00+4ююз387576 0.0 1029141
06:00+4ююз387970 0.0 1030169
09:00+10ююз466124 0.0 1030449
12:00+14ююз45515 0.0 10301231
15:00+15ююз45495 0.0 10291403
18:00+15ююз34560 0.0 10291170
21:00+10ю35820 0.0 102986
11 мая, вт
вт1100:00+7ююв34825 0.0 103063
03:00+6ююв348249 0.0 103157
06:00+6ююв247899 0.0 103172
09:00+12ююв356198 0.0 1030383
12:00+16ююв45475 0.0 10301109
15:00+18юв34435 0.0 10281300
18:00+17юв36545 0.0 10271083
21:00+11юв39783 0.0 1027158